DW4604 Weather Reports


Display with metric or nautical units.
time (UTC)temp
F
wind
direction
speed
MPH
gust
MPH
rain 1hr
in
rain 24hr
in
rain mn
in
humidity
%
barometer
mb
20260904211942 74 0 0.0 0.0 0.00 0.00 0.00 68 1007.5
20260904210942 73 0 0.0 0.0 0.00 0.00 0.00 69 1007.4
20260904210442 73 0 0.0 0.0 0.00 0.00 0.00 70 1007.5
20260904205942 73 0 0.0 0.0 0.00 0.00 0.00 70 1007.6
20260904205442 72 0 0.0 0.0 0.00 0.00 0.00 72 1007.5
20260904204942 72 0 0.0 0.0 0.00 0.00 0.00 72 1007.6
20260904204442 72 0 0.0 0.0 0.00 0.00 0.00 72 1007.5
20260904203942 71 0 0.0 0.0 0.00 0.00 0.00 73 1007.5
20260904203442 71 0 0.0 0.0 0.00 0.00 0.00 73 1007.5
20260904202942 71 0 0.0 0.0 0.00 0.00 0.00 74 1007.5
20260904202443 71 0 0.0 0.0 0.00 0.00 0.00 74 1007.5
20260904201942 71 0 0.0 0.0 0.00 0.00 0.00 74 1007.6
20260904201442 71 0 0.0 0.0 0.00 0.00 0.00 75 1007.6
20260904200442 70 0 0.0 0.0 0.00 0.00 0.00 76 1007.7
20260904194942 69 0 0.0 0.0 0.00 0.00 0.00 78 1007.9
20260904194442 69 0 0.0 0.0 0.00 0.00 0.00 78 1007.9
20260904193942 69 0 0.0 0.0 0.00 0.00 0.00 79 1008.1
20260904192942 69 0 0.0 0.0 0.00 0.00 0.00 80 1008.0
20260904192443 68 0 0.0 0.0 0.00 0.00 0.00 80 1008.0
20260904191942 68 0 0.0 0.0 0.00 0.00 0.00 81 1008.1
20260904191443 68 0 0.0 0.0 0.00 0.00 0.00 82 1008.2
20260904190942 68 0 0.0 0.0 0.00 0.00 0.00 82 1008.3
20260904190442 67 0 0.0 0.0 0.00 0.00 0.00 82 1008.3
20260904185942 67 0 0.0 0.0 0.00 0.00 0.00 84 1008.4
20260904185442 66 0 0.0 0.0 0.00 0.00 0.00 84 1008.5
20260904184942 66 0 0.0 0.0 0.00 0.00 0.00 84 1008.6
20260904184442 67 0 0.0 0.0 0.00 0.00 0.00 83 1008.7
20260904183942 67 0 0.0 0.0 0.00 0.00 0.00 83 1008.8
20260904183442 67 0 0.0 0.0 0.00 0.00 0.00 82 1008.9
20260904182943 67 0 0.0 0.0 0.00 0.00 0.00 82 1008.9
20260904182443 68 0 0.0 0.0 0.00 0.00 0.00 82 1009.0
20260904181943 68 0 0.0 0.0 0.00 0.00 0.00 82 1009.1
20260904181442 67 0 0.0 0.0 0.00 0.00 0.00 82 1009.1
20260904180443 67 0 0.0 0.0 0.00 0.00 0.00 82 1009.1
20260904175943 68 0 0.0 0.0 0.00 0.00 0.00 82 1009.1
20260904175442 68 0 0.0 0.0 0.00 0.00 0.00 81 1008.9
20260904174942 68 0 0.0 0.0 0.00 0.00 0.00 81 1008.9
20260904174442 69 0 0.0 0.0 0.00 0.00 0.00 80 1008.8
20260904173942 69 0 0.0 0.0 0.00 0.00 0.00 79 1008.8
20260904173442 69 0 0.0 0.0 0.00 0.00 0.00 79 1008.8
20260904172443 70 0 0.0 0.0 0.00 0.00 0.00 77 1008.6
20260904171942 71 0 0.0 0.0 0.00 0.00 0.00 77 1008.6
20260904171442 71 0 0.0 0.0 0.00 0.00 0.00 76 1008.6
20260904170942 71 0 0.0 0.0 0.00 0.00 0.00 76 1008.7
20260904170442 72 0 0.0 0.0 0.00 0.00 0.00 75 1008.7
20260904165443 73 0 0.0 0.0 0.00 0.00 0.00 73 1008.8
20260904164943 73 0 0.0 0.0 0.00 0.00 0.00 72 1008.8
20260904164443 74 0 0.0 0.0 0.00 0.00 0.00 72 1008.8
20260904163943 74 0 0.0 0.0 0.00 0.00 0.00 71 1008.8
20260904163443 74 0 0.0 0.0 0.00 0.00 0.00 71 1008.9
20260904162942 75 0 0.0 0.0 0.00 0.00 0.00 70 1009.0
20260904162442 75 0 0.0 0.0 0.00 0.00 0.00 69 1009.1
20260904161943 75 0 0.0 0.0 0.00 0.00 0.00 69 1009.1
20260904161443 75 0 0.0 0.0 0.00 0.00 0.00 69 1009.1
20260904160943 75 0 0.0 0.0 0.00 0.00 0.00 69 1009.2
20260904155945 75 0 0.0 0.0 0.00 0.00 0.00 69 1009.2
20260904155443 75 0 0.0 0.0 0.00 0.00 0.00 69 1009.4
20260904154943 76 0 0.0 0.0 0.00 0.00 0.00 69 1009.4
20260904154444 76 0 0.0 0.0 0.00 0.00 0.00 69 1009.4
20260904153942 76 0 0.0 0.0 0.00 0.00 0.00 67 1009.4
20260904153443 76 0 0.0 0.0 0.00 0.00 0.00 68 1009.6
20260904152943 77 0 0.0 0.0 0.00 0.00 0.00 67 1009.6
20260904152444 77 0 0.0 0.0 0.00 0.00 0.00 68 1009.6
20260904151943 77 0 0.0 0.0 0.00 0.00 0.00 67 1009.7
20260904151443 77 0 0.0 0.0 0.00 0.00 0.00 67 1009.9
20260904150943 76 0 0.0 0.0 0.00 0.00 0.00 69 1010.0
20260904150443 76 0 0.0 0.0 0.00 0.00 0.00 69 1010.1
20260904145943 76 0 0.0 0.0 0.00 0.00 0.00 69 1010.1
20260904145443 76 0 0.0 0.0 0.00 0.00 0.00 68 1010.2
20260904144444 76 0 0.0 0.0 0.00 0.00 0.00 69 1010.3
20260904143443 75 0 0.0 0.0 0.00 0.00 0.00 68 1010.5
20260904142945 75 0 0.0 0.0 0.00 0.00 0.00 70 1010.5
20260904141943 75 0 0.0 0.0 0.00 0.00 0.00 70 1010.7
20260904141444 75 0 0.0 0.0 0.00 0.00 0.00 70 1010.7
20260904140443 75 0 0.0 0.0 0.00 0.00 0.00 71 1010.8
20260904135443 77 0 0.0 0.0 0.00 0.00 0.00 69 1010.7
20260904134943 77 0 0.0 0.0 0.00 0.00 0.00 69 1010.9
20260904134444 78 0 0.0 0.0 0.00 0.00 0.00 67 1011.0
20260904133944 77 0 0.0 0.0 0.00 0.00 0.00 70 1010.9
20260904133444 76 0 0.0 0.0 0.00 0.00 0.00 68 1011.2
20260904132944 76 0 0.0 0.0 0.00 0.00 0.00 68 1011.1
20260904131944 76 0 0.0 0.0 0.00 0.00 0.00 67 1011.2
20260904130943 77 0 0.0 0.0 0.00 0.00 0.00 69 1011.4
20260904130443 76 0 0.0 0.0 0.00 0.00 0.00 71 1011.5
20260904125444 74 0 0.0 0.0 0.00 0.00 0.00 72 1011.6
20260904124944 74 0 0.0 0.0 0.00 0.00 0.00 72 1011.5
20260904124444 74 0 0.0 0.0 0.00 0.00 0.00 72 1011.7
20260904123944 74 0 0.0 0.0 0.00 0.00 0.00 71 1011.8
20260904122944 74 0 0.0 0.0 0.00 0.00 0.00 72 1012.0
20260904121944 74 0 0.0 0.0 0.00 0.00 0.00 70 1012.1
20260904121444 74 0 0.0 0.0 0.00 0.00 0.00 71 1012.2
20260904120944 74 0 0.0 0.0 0.00 0.00 0.00 72 1012.2
20260904120444 74 0 0.0 0.0 0.00 0.00 0.00 71 1012.3
20260904115944 74 0 0.0 0.0 0.00 0.00 0.00 71 1012.4
20260904115443 74 0 0.0 0.0 0.00 0.00 0.00 69 1012.5
20260904114943 74 0 0.0 0.0 0.00 0.00 0.00 71 1012.7
20260904114443 73 0 0.0 0.0 0.00 0.00 0.00 72 1012.6
20260904113943 73 0 0.0 0.0 0.00 0.00 0.00 71 1012.7
20260904113443 74 0 0.0 0.0 0.00 0.00 0.00 69 1012.9
20260904112946 75 0 0.0 0.0 0.00 0.00 0.00 67 1012.8
20260904112444 76 0 0.0 0.0 0.00 0.00 0.00 65 1012.9
20260904111943 76 0 0.0 0.0 0.00 0.00 0.00 66 1013.1
20260904111444 75 0 0.0 0.0 0.00 0.00 0.00 66 1013.1
20260904110443 74 0 0.0 0.0 0.00 0.00 0.00 68 1013.1
20260904105444 76 0 0.0 0.0 0.00 0.00 0.00 66 1013.3
20260904104944 75 0 0.0 0.0 0.00 0.00 0.00 67 1013.2
20260904104443 75 0 0.0 0.0 0.00 0.00 0.00 68 1013.2
20260904103944 74 0 0.0 0.0 0.00 0.00 0.00 70 1013.4
20260904103444 72 0 0.0 0.0 0.00 0.00 0.00 73 1013.4
20260904102944 72 0 0.0 0.0 0.00 0.00 0.00 72 1013.5
20260904102443 72 0 0.0 0.0 0.00 0.00 0.00 72 1013.5
20260904101944 72 0 0.0 0.0 0.00 0.00 0.00 72 1013.7
20260904101443 71 0 0.0 0.0 0.00 0.00 0.00 72 1013.8
20260904100944 71 0 0.0 0.0 0.00 0.00 0.00 72 1013.8
20260904100444 71 0 0.0 0.0 0.00 0.00 0.00 73 1013.8
20260904095944 71 0 0.0 0.0 0.00 0.00 0.00 72 1013.8
20260904095444 71 0 0.0 0.0 0.00 0.00 0.00 72 1013.9
20260904094944 71 0 0.0 0.0 0.00 0.00 0.00 72 1014.0
20260904094444 72 0 0.0 0.0 0.00 0.00 0.00 71 1014.1
20260904093943 72 0 0.0 0.0 0.00 0.00 0.00 69 1014.2
20260904093444 72 0 0.0 0.0 0.00 0.00 0.00 71 1014.2
20260904092944 72 0 0.0 0.0 0.00 0.00 0.00 74 1014.2
20260904092444 72 0 0.0 0.0 0.00 0.00 0.00 73 1014.3
20260904091944 71 0 0.0 0.0 0.00 0.00 0.00 73 1014.4
20260904091444 71 0 0.0 0.0 0.00 0.00 0.00 73 1014.4
20260904090944 71 0 0.0 0.0 0.00 0.00 0.00 73 1014.6
20260904090444 71 0 0.0 0.0 0.00 0.00 0.00 73 1014.6
20260904085444 70 0 0.0 0.0 0.00 0.00 0.00 74 1014.5
20260904084944 70 0 0.0 0.0 0.00 0.00 0.00 75 1014.5
20260904084444 70 0 0.0 0.0 0.00 0.00 0.00 76 1014.6
20260904083945 70 0 0.0 0.0 0.00 0.00 0.00 75 1014.7
20260904083445 70 0 0.0 0.0 0.00 0.00 0.00 75 1014.7
20260904082944 70 0 0.0 0.0 0.00 0.00 0.00 75 1014.7
20260904081946 69 0 0.0 0.0 0.00 0.00 0.00 76 1015.0
20260904081445 70 0 0.0 0.0 0.00 0.00 0.00 75 1015.0
20260904080944 70 0 0.0 0.0 0.00 0.00 0.00 76 1015.1
20260904080444 70 0 0.0 0.0 0.00 0.00 0.00 75 1014.9
20260904075944 69 0 0.0 0.0 0.00 0.00 0.00 77 1014.9
20260904075444 68 0 0.0 0.0 0.00 0.00 0.00 79 1015.0
20260904074944 67 0 0.0 0.0 0.00 0.00 0.00 80 1015.0
20260904074445 67 0 0.0 0.0 0.00 0.00 0.00 79 1015.1
20260904073946 66 0 0.0 0.0 0.00 0.00 0.00 80 1015.1
20260904073444 67 0 0.0 0.0 0.00 0.00 0.00 80 1015.0
20260904072944 66 0 0.0 0.0 0.00 0.00 0.00 80 1015.1
20260904071944 66 0 0.0 0.0 0.00 0.00 0.00 80 1015.3
20260904071444 66 0 0.0 0.0 0.00 0.00 0.00 81 1015.4
20260904070946 66 0 0.0 0.0 0.00 0.00 0.00 81 1015.3
20260904070445 66 0 0.0 0.0 0.00 0.00 0.00 81 1015.2
20260904065945 65 0 0.0 0.0 0.00 0.00 0.00 81 1015.3
20260904065445 65 0 0.0 0.0 0.00 0.00 0.00 82 1015.5
20260904064944 65 0 0.0 0.0 0.00 0.00 0.00 81 1015.4
20260904064444 65 0 0.0 0.0 0.00 0.00 0.00 81 1015.4
20260904063944 64 0 0.0 0.0 0.00 0.00 0.00 82 1015.2
20260904063445 64 0 0.0 0.0 0.00 0.00 0.00 82 1015.3
20260904062946 64 0 0.0 0.0 0.00 0.00 0.00 82 1015.3
20260904062445 64 0 0.0 0.0 0.00 0.00 0.00 82 1015.3
20260904061945 64 0 0.0 0.0 0.00 0.00 0.00 83 1015.3
20260904061445 64 0 0.0 0.0 0.00 0.00 0.00 84 1015.3
20260904060945 63 0 0.0 0.0 0.00 0.00 0.00 83 1015.1
20260904060446 63 0 0.0 0.0 0.00 0.00 0.00 84 1015.1
20260904055945 63 0 0.0 0.0 0.00 0.00 0.00 84 1015.1
20260904055445 63 0 0.0 0.0 0.00 0.00 0.00 84 1014.9
20260904054944 62 0 0.0 0.0 0.00 0.00 0.00 84 1014.9
20260904054445 63 0 0.0 0.0 0.00 0.00 0.00 83 1014.8
20260904053945 63 0 0.0 0.0 0.00 0.00 0.00 83 1014.7
20260904053445 63 0 0.0 0.0 0.00 0.00 0.00 83 1015.0
20260904052945 62 0 0.0 0.0 0.00 0.00 0.00 83 1015.1
20260904052445 62 0 0.0 0.0 0.00 0.00 0.00 83 1015.0
20260904051944 62 0 0.0 0.0 0.00 0.00 0.00 84 1015.1
20260904050944 62 0 0.0 0.0 0.00 0.00 0.00 84 1015.0
20260904050446 62 0 0.0 0.0 0.00 0.00 0.00 84 1014.9
20260904045945 62 0 0.0 0.0 0.00 0.00 0.00 84 1014.8
20260904045445 62 0 0.0 0.0 0.00 0.00 0.00 85 1015.0
20260904044945 62 0 0.0 0.0 0.00 0.00 0.00 85 1015.0
20260904044446 61 0 0.0 0.0 0.00 0.00 0.00 85 1015.3
20260904043945 61 0 0.0 0.0 0.00 0.00 0.00 85 1015.2
20260904043445 61 0 0.0 0.0 0.00 0.00 0.00 85 1015.1
20260904042945 61 0 0.0 0.0 0.00 0.00 0.00 85 1015.0
20260904041945 60 0 0.0 0.0 0.00 0.00 0.00 86 1014.8
20260904041445 60 0 0.0 0.0 0.00 0.00 0.00 86 1014.9
20260904040945 60 0 0.0 0.0 0.00 0.00 0.00 87 1014.9
20260904035945 60 0 0.0 0.0 0.00 0.00 0.00 85 1015.0
20260904035445 61 0 0.0 0.0 0.00 0.00 0.00 85 1015.0
20260904034947 61 0 0.0 0.0 0.00 0.00 0.00 85 1015.1
20260904034445 61 0 0.0 0.0 0.00 0.00 0.00 85 1015.2
20260904033945 61 0 0.0 0.0 0.00 0.00 0.00 85 1015.2
20260904033445 61 0 0.0 0.0 0.00 0.00 0.00 85 1015.2
20260904032446 61 0 0.0 0.0 0.00 0.00 0.00 85 1015.1
20260904031946 61 0 0.0 0.0 0.00 0.00 0.00 85 1015.0
20260904030947 61 0 0.0 0.0 0.00 0.00 0.00 84 1015.0
20260904030445 61 0 0.0 0.0 0.00 0.00 0.00 84 1015.0
20260904025946 61 0 0.0 0.0 0.00 0.00 0.00 83 1015.0
20260904023945 62 0 0.0 0.0 0.00 0.00 0.00 82 1015.2
20260904022946 62 0 0.0 0.0 0.00 0.00 0.00 81 1015.1
20260904021445 62 0 0.0 0.0 0.00 0.00 0.00 81 1015.1
20260904020447 62 0 0.0 0.0 0.00 0.00 0.00 82 1015.0
20260904015946 62 0 0.0 0.0 0.00 0.00 0.00 82 1015.1
20260904015445 62 0 0.0 0.0 0.00 0.00 0.00 82 1015.1
20260904014947 62 0 0.0 0.0 0.00 0.00 0.00 82 1015.2
20260904014446 62 0 0.0 0.0 0.00 0.00 0.00 82 1015.1
20260904013946 61 0 0.0 0.0 0.00 0.00 0.00 83 1015.1
20260904013446 61 0 0.0 0.0 0.00 0.00 0.00 84 1015.1
20260904012945 61 0 0.0 0.0 0.00 0.00 0.00 84 1015.1
20260904010945 60 0 0.0 0.0 0.00 0.00 0.00 86 1015.2
20260904010445 60 0 0.0 0.0 0.00 0.00 0.00 87 1015.2
20260904005945 60 0 0.0 0.0 0.00 0.00 0.00 87 1015.2
20260904005445 60 0 0.0 0.0 0.00 0.00 0.00 87 1015.2
20260904004945 60 0 0.0 0.0 0.00 0.00 0.00 87 1015.2
20260904003945 60 0 0.0 0.0 0.00 0.00 0.00 87 1015.3
20260904003445 60 0 0.0 0.0 0.00 0.00 0.00 87 1015.3
20260904002945 60 0 0.0 0.0 0.00 0.00 0.00 87 1015.4
20260904002445 60 0 0.0 0.0 0.00 0.00 0.00 88 1015.3
20260904001947 60 0 0.0 0.0 0.00 0.00 0.00 88 1015.3
20260904001446 60 0 0.0 0.0 0.00 0.00 0.00 88 1015.3
20260904000946 59 0 0.0 0.0 0.00 0.00 0.00 88 1015.4
20260903235946 59 0 0.0 0.0 0.00 0.00 0.00 88 1015.5
20260903235446 59 0 0.0 0.0 0.00 0.00 0.00 88 1015.4
20260903234946 59 0 0.0 0.0 0.00 0.00 0.00 88 1015.5
20260903233946 59 0 0.0 0.0 0.00 0.00 0.00 88 1015.5
20260903233446 59 0 0.0 0.0 0.00 0.00 0.00 88 1015.5
20260903232447 59 0 0.0 0.0 0.00 0.00 0.00 88 1015.6
20260903231946 59 0 0.0 0.0 0.00 0.00 0.00 88 1015.7
20260903231446 59 0 0.0 0.0 0.00 0.00 0.00 88 1015.8
20260903230445 59 0 0.0 0.0 0.00 0.00 0.00 89 1015.8
20260903225446 59 0 0.0 0.0 0.00 0.00 0.00 90 1015.9
20260903224946 59 0 0.0 0.0 0.00 0.00 0.00 89 1016.0
20260903224446 59 0 0.0 0.0 0.00 0.00 0.00 90 1016.0
20260903223946 59 0 0.0 0.0 0.00 0.00 0.00 90 1015.9
20260903221447 58 0 0.0 0.0 0.00 0.00 0.00 91 1015.9
20260903220946 58 0 0.0 0.0 0.00 0.00 0.00 91 1015.8
20260903215949 58 0 0.0 0.0 0.00 0.00 0.00 91 1015.9
20260903215447 58 0 0.0 0.0 0.00 0.00 0.00 91 1016.0
20260903214947 57 0 0.0 0.0 0.00 0.00 0.00 91 1016.0
20260903214448 57 0 0.0 0.0 0.00 0.00 0.00 91 1016.0
20260903213946 57 0 0.0 0.0 0.00 0.00 0.00 91 1016.0
20260903212946 56 0 0.0 0.0 0.00 0.00 0.00 91 1016.0
20260903212447 56 0 0.0 0.0 0.00 0.00 0.00 91 1016.0